GFSNGP_925_thetae_000.txt.gz
Theta_e
317 317 316 319 319 319 319 317 318 317 316 316 313 312 311 310 310 311 308 306 305 306 304 303 301 299 298 297 296 295 294 293 291 289 288 288 288 289 289 290 290 291 291 291
312 312 313 313 312 312 314 317 317 316 316 313 312 311 315 314 310 310 306 305 308 305 302 300 299 297 296 295 294 292 292 290 288 287 287 287 287 288 288 288 288 289 289 290
311 313 314 317 315 312 310 309 310 312 311 312 314 314 314 313 310 308 304 308 306 302 300 299 297 296 295 293 291 289 289 287 287 287 286 286 286 287 287 287 287 288 288 289
313 315 321 317 313 313 313 314 312 312 312 312 314 310 308 308 309 304 307 305 302 300 298 297 295 294 292 290 288 287 287 287 286 286 286 286 286 286 286 286 286 286 287 287
316 317 316 317 316 317 318 317 314 315 315 315 312 308 309 307 305 304 303 301 300 298 297 295 292 291 289 287 287 286 286 286 286 286 285 285 285 285 285 285 285 286 286 286
308 315 320 316 315 313 313 314 314 315 314 315 313 314 311 306 304 303 301 300 298 297 295 292 289 288 287 286 286 285 285 285 285 285 285 285 285 285 285 285 285 285 285 285
314 315 314 312 312 313 317 312 312 311 311 311 313 310 306 303 301 300 299 298 296 294 291 289 287 287 286 286 285 285 285 285 285 285 285 284 284 284 284 284 284 284 284 284
312 314 314 312 314 318 311 310 309 308 308 308 307 306 304 302 301 300 298 295 293 291 289 287 287 286 285 285 284 284 285 285 285 284 284 284 284 284 284 284 284 284 284 285
313 312 311 309 310 309 308 308 308 308 308 307 307 305 304 303 301 300 296 292 290 289 288 287 286 285 284 284 284 284 284 284 284 284 283 283 284 283 283 283 283 284 284 285
314 312 310 309 308 307 307 307 306 306 306 306 306 305 303 300 299 297 293 289 288 287 286 286 285 285 284 284 284 284 284 284 283 283 283 283 283 283 283 283 283 284 285 285
312 311 309 307 307 305 305 304 305 304 303 303 302 302 300 299 298 294 290 289 287 286 285 285 285 284 284 284 284 284 283 283 283 283 283 283 283 283 283 283 284 285 285 285
311 309 309 308 307 306 306 305 303 301 301 299 299 299 299 296 293 290 288 287 286 285 285 284 284 284 284 284 284 283 283 283 283 283 283 283 282 282 282 283 284 284 284 285
309 306 305 305 303 302 304 302 299 298 298 298 299 298 296 290 288 288 286 285 285 284 284 284 284 284 284 283 283 283 282 282 282 283 283 282 282 282 283 283 283 283 283 284
305 305 307 305 305 299 298 296 296 297 297 298 298 294 291 288 286 285 285 285 284 284 284 284 284 283 283 283 283 282 282 283 283 282 282 282 282 283 283 283 283 282 282 283
303 302 303 300 296 296 296 295 295 295 294 294 293 290 287 285 284 284 285 284 284 284 284 283 283 283 283 282 282 282 282 282 282 282 282 282 283 282 282 282 282 282 282 282
299 295 291 296 295 295 296 296 295 295 293 290 289 286 285 285 285 285 285 284 283 282 283 283 283 283 282 282 282 282 282 282 282 282 282 282 282 282 282 282 282 282 282 282
297 294 289 289 295 294 296 295 293 294 293 289 285 285 285 284 284 284 283 283 283 282 282 282 282 282 281 282 282 282 282 282 282 282 281 282 282 282 282 282 282 282 281 282
295 293 294 296 295 295 295 293 293 292 288 286 285 285 284 283 282 282 283 282 282 282 282 282 281 281 282 282 282 281 282 281 281 281 281 281 281 282 282 281 281 282 281 281
295 294 293 293 294 293 293 292 291 287 286 285 284 283 283 283 282 282 282 281 281 280 281 281 281 281 281 281 281 281 281 281 281 281 281 282 282 282 282 281 281 281 281 281
292 291 291 292 294 293 290 289 287 285 285 284 284 283 282 282 282 282 281 280 281 281 281 281 281 281 280 280 280 281 281 281 281 281 281 281 281 281 281 281 281 281 280 279
290 289 287 287 288 289 288 287 285 283 284 283 283 282 282 282 282 281 280 279 280 281 281 281 280 280 280 280 281 281 281 281 281 281 281 281 280 280 280 280 279 279 279 279
290 289 287 286 284 284 284 284 284 284 284 283 283 282 281 281 281 281 281 280 280 280 280 280 280 279 280 281 281 280 280 280 279 279 279 278 279 278 278 278 278 278 278 278
290 290 289 286 284 284 284 284 284 284 284 283 283 282 281 281 280 279 279 280 280 279 280 279 279 280 280 280 280 279 278 277 277 278 278 278 277 277 278 278 278 278 278 278
289 290 289 288 286 283 281 283 284 284 283 283 282 282 281 280 280 280 279 279 278 278 279 278 278 279 279 278 277 277 277 277 277 277 277 277 278 278 278 278 278 278 278 278
289 289 288 285 282 282 283 283 283 283 282 281 281 280 280 279 278 278 278 278 277 277 277 277 278 278 277 276 277 277 277 277 277 277 278 277 277 277 277 277 278 278 278 278
287 286 286 285 284 284 283 283 281 281 280 280 280 279 279 278 278 277 277 277 277 276 276 275 275 276 276 276 276 277 277 277 277 277 277 277 277 277 277 277 277 277 277 277
285 285 284 283 283 282 282 281 280 279 279 278 278 278 278 277 276 276 276 275 275 275 275 275 275 275 276 276 276 276 276 276 276 276 277 276 276 276 276 276 277 277 277 277

GFSNGP_925_thetae_003.txt.gz
Theta_e
315 315 317 319 320 315 315 314 316 315 315 315 314 312 310 309 309 310 309 304 305 305 302 300 298 296 295 295 293 291 290 288 287 287 286 286 286 286 286 286 286 286 286 286
311 311 311 313 313 317 317 317 315 316 315 311 312 311 314 313 309 310 306 303 306 304 300 298 296 295 294 292 290 288 287 287 286 286 286 286 286 285 285 285 285 285 285 285
312 312 314 314 312 310 309 309 310 310 310 311 313 313 313 313 309 309 304 305 305 301 299 297 294 294 292 290 288 287 286 286 286 285 285 285 285 285 285 285 285 284 285 285
311 314 318 314 313 312 312 313 310 314 314 313 313 312 309 308 308 306 303 305 301 298 297 294 293 292 290 287 287 286 285 285 285 285 285 285 284 284 284 284 284 284 284 284
318 316 315 317 315 313 316 317 313 315 314 312 310 309 309 306 304 304 303 300 299 297 295 293 292 290 287 286 286 285 285 285 285 285 285 284 284 284 284 284 283 283 284 284
311 318 322 316 314 312 311 318 312 313 312 313 311 312 309 306 303 301 300 299 297 296 294 292 288 287 286 285 285 284 284 284 284 284 284 284 284 283 283 283 283 283 283 283
316 317 315 312 312 312 317 312 310 308 309 309 309 309 306 302 301 300 299 297 296 294 291 288 286 286 285 284 284 284 284 284 284 284 284 283 283 283 283 283 283 282 283 283
312 316 318 311 313 316 310 308 307 307 307 308 308 307 305 302 300 298 295 294 293 291 288 286 286 285 285 284 284 284 284 284 284 283 283 283 283 283 283 282 282 282 282 283
312 312 310 309 309 307 306 307 307 308 307 306 306 305 304 302 299 298 295 292 291 290 287 286 285 285 284 284 284 283 283 283 283 283 283 283 283 282 282 282 282 282 282 283
313 311 310 308 307 307 307 308 307 306 306 305 305 304 303 300 298 295 292 290 289 287 286 285 285 284 284 284 283 283 283 283 282 282 283 283 282 282 282 282 282 282 283 284
311 310 308 307 307 307 306 305 305 303 304 303 302 301 301 298 297 294 291 289 287 286 285 285 284 284 284 284 283 283 282 282 282 282 282 282 282 282 282 282 283 284 284 284
312 308 307 307 306 305 305 305 304 302 301 299 299 298 298 297 296 292 289 287 286 285 284 284 284 284 284 283 283 282 282 282 282 282 282 282 282 281 281 282 283 283 283 283
308 305 304 304 302 302 303 299 297 296 296 297 298 298 298 292 290 289 286 285 284 284 284 284 283 283 283 283 282 282 282 282 282 282 282 281 281 281 282 282 282 282 282 282
304 303 306 304 302 296 295 296 297 297 297 297 298 297 294 290 288 286 285 285 284 284 283 283 283 283 283 282 282 282 281 282 282 281 281 281 281 282 282 281 282 281 281 282
301 299 299 296 295 296 296 295 295 296 295 295 295 294 289 286 284 284 285 284 284 283 283 283 283 283 282 282 281 281 281 281 281 281 282 282 281 281 281 281 281 281 281 281
295 293 293 295 295 293 292 292 295 295 294 293 291 289 288 285 284 284 284 284 283 282 283 282 282 282 281 281 281 281 281 281 282 281 281 281 281 281 281 281 281 281 281 281
296 297 290 288 288 293 293 293 295 295 292 290 289 288 285 284 284 284 284 283 283 282 282 282 281 281 281 281 281 281 281 281 281 281 280 281 281 281 281 281 282 281 281 281
295 292 293 295 294 293 293 293 293 292 291 292 288 285 284 283 282 283 283 283 282 282 282 281 281 281 281 281 280 281 281 280 280 280 280 281 281 281 282 281 281 281 280 280
295 295 294 293 293 292 292 292 293 293 289 286 284 283 284 283 283 283 282 281 281 280 281 281 281 281 280 280 280 280 280 280 280 280 280 281 281 281 281 281 280 280 280 280
294 293 292 291 292 293 292 293 292 288 286 285 284 283 282 283 282 282 281 280 281 281 280 280 281 280 280 279 279 280 280 280 280 280 280 280 280 279 280 279 279 279 279 279
291 290 289 288 288 290 291 291 288 285 285 284 283 282 282 283 282 281 280 279 281 281 281 280 280 279 279 279 280 281 280 280 279 279 279 278 278 278 278 278 278 278 278 278
289 289 289 288 286 285 286 286 286 285 284 283 283 282 282 281 281 281 281 280 280 280 280 279 279 279 279 280 280 280 279 278 277 277 277 277 277 277 277 277 277 277 277 278
289 289 290 289 287 286 286 284 284 283 283 283 283 282 281 281 280 279 279 280 279 279 279 278 278 279 279 280 279 278 277 276 276 276 277 276 276 276 277 277 277 277 277 277
288 289 289 289 288 285 281 284 283 283 283 283 282 282 281 280 280 279 279 278 278 278 278 278 278 278 279 278 276 276 276 276 276 276 276 277 277 277 277 276 276 277 277 277
288 288 287 286 283 283 284 283 283 282 282 281 281 280 280 279 278 278 278 277 277 277 276 276 277 277 276 276 276 276 276 276 276 277 277 277 276 276 276 276 276 276 277 277
286 286 286 286 285 284 283 282 282 281 280 280 280 279 278 278 278 277 276 276 276 276 275 275 275 275 276 275 275 276 276 276 276 276 276 276 276 276 276 276 276 276 276 276
285 285 284 283 283 282 282 281 280 279 278 278 278 278 277 277 276 276 275 275 275 274 274 274 274 274 275 275 275 276 276 275 275 275 276 276 275 275 275 275 275 275 275 275

GFSNGP_925_thetae_006.txt.gz
Theta_e
313 316 317 317 317 313 314 315 318 317 314 314 312 312 311 310 309 309 308 305 306 304 300 297 296 295 294 293 291 289 287 287 286 286 286 286 285 285 285 285 285 285 285 285
311 311 312 316 317 313 314 313 314 314 315 311 311 311 313 313 311 310 308 304 305 302 299 296 295 294 293 291 289 287 286 286 286 286 285 285 285 285 285 284 284 284 284 284
315 312 313 313 310 315 313 312 313 316 312 310 314 313 314 313 311 310 307 303 304 300 298 295 294 294 292 289 287 286 286 286 285 285 285 285 284 284 284 284 284 283 283 283
309 313 312 311 312 308 310 311 310 312 312 312 312 311 309 307 308 307 305 304 301 298 295 294 293 291 289 287 286 286 285 285 285 284 284 284 284 284 284 283 283 283 283 283
314 312 313 317 312 313 315 316 313 313 312 311 309 309 309 306 304 303 302 300 299 298 295 293 291 289 287 286 286 285 284 284 284 284 284 284 283 283 283 283 282 282 282 282
309 316 318 315 313 311 313 319 312 312 312 312 310 312 310 306 303 301 299 299 296 295 293 291 288 287 286 285 284 284 284 284 284 284 283 283 283 283 283 282 282 282 282 282
317 317 315 312 312 311 318 315 311 309 308 309 309 308 305 302 301 299 297 296 294 293 291 289 287 286 285 284 284 284 284 284 284 283 283 283 283 283 283 282 282 281 281 281
313 316 318 310 312 315 310 307 307 306 306 307 306 306 304 301 299 296 294 294 293 291 289 287 286 285 284 284 284 284 283 283 283 283 283 282 283 283 282 282 281 281 281 281
312 313 310 308 310 307 306 306 306 307 306 306 306 306 305 302 299 296 294 293 291 290 287 286 285 285 284 284 283 283 283 283 283 282 282 282 282 282 281 281 281 281 281 282
312 311 310 308 306 306 306 307 306 305 305 305 305 303 303 300 298 295 293 291 290 288 286 285 285 284 284 283 283 283 283 282 282 282 282 282 282 282 281 281 281 281 282 283
310 309 309 308 307 306 305 304 304 303 303 302 302 302 301 297 296 294 292 290 288 286 285 285 284 284 284 283 283 282 282 282 282 281 282 282 281 281 281 281 282 283 283 283
311 308 308 307 305 304 304 303 300 302 302 299 299 298 298 296 297 294 290 288 286 285 284 284 284 284 283 283 282 282 281 281 281 281 282 281 281 281 281 281 282 282 282 283
308 304 303 302 300 301 300 298 297 296 296 297 297 297 298 294 292 291 288 286 285 284 284 284 283 283 283 282 282 281 281 281 281 281 281 281 281 281 281 281 281 281 282 282
302 302 304 303 302 296 296 296 297 296 296 297 296 296 294 290 289 287 285 285 284 284 284 283 283 283 282 282 281 281 281 281 281 280 280 281 281 281 281 280 281 281 281 281
299 297 299 295 294 296 295 293 294 294 294 295 295 295 291 288 286 285 284 284 284 284 283 283 282 282 282 281 281 281 281 281 280 281 281 281 281 280 280 280 281 281 281 281
294 295 292 293 295 291 293 290 295 293 293 294 294 293 291 288 286 284 284 284 283 282 282 282 282 282 281 281 281 281 280 280 281 281 280 280 280 280 280 280 281 281 281 280
297 297 290 290 287 293 294 293 292 293 294 290 290 291 288 284 283 283 284 283 282 282 282 282 282 281 281 281 281 280 280 280 280 280 280 280 280 280 280 281 281 281 280 280
295 292 292 294 293 293 293 293 292 292 291 293 292 289 284 283 282 283 283 282 282 282 282 282 281 281 281 280 280 280 280 280 279 280 280 280 280 281 280 280 280 280 280 279
294 293 292 292 292 291 291 291 292 293 293 291 287 284 284 283 283 282 282 282 282 281 282 281 281 281 280 280 280 280 279 280 279 280 280 280 279 279 279 279 279 279 278 278
293 293 292 292 291 292 291 292 292 291 290 286 285 283 282 282 282 282 281 281 282 281 281 280 281 280 279 279 279 280 280 280 279 279 279 279 278 278 278 278 278 278 277 277
292 291 290 289 288 289 290 291 290 287 287 285 283 282 282 282 282 281 281 279 282 281 280 280 279 279 279 279 280 280 280 279 279 278 277 277 276 277 277 277 277 276 277 277
288 288 288 289 287 287 288 287 286 285 285 283 282 282 282 282 282 281 281 280 280 280 279 279 279 278 279 280 280 279 279 278 277 276 276 276 276 276 276 276 276 276 277 277
288 288 288 288 287 288 287 286 285 284 283 282 282 282 282 281 281 280 279 280 279 279 279 278 278 279 279 279 278 278 276 276 276 276 276 276 275 275 276 276 276 276 276 276
288 288 288 288 288 286 284 286 284 283 282 282 282 282 281 280 280 280 279 278 278 278 278 277 277 278 278 277 276 276 275 275 275 275 275 276 276 276 276 276 275 275 276 276
288 287 286 286 284 284 284 283 282 281 281 281 281 280 280 279 278 278 278 277 277 276 276 276 276 276 276 275 275 275 275 275 275 276 276 276 275 275 275 275 275 275 276 275
285 285 285 285 285 284 283 282 281 280 280 280 279 279 279 278 277 277 276 276 275 275 275 274 274 275 275 274 274 275 275 275 275 275 275 275 275 275 275 275 274 274 274 274
285 284 284 282 282 282 281 281 280 278 278 278 278 278 277 276 276 275 275 274 274 274 274 274 274 274 274 274 275 275 275 274 274 275 275 275 274 274 274 273 273 273 273 273

GFSNGP_925_thetae_009.txt.gz
Theta_e
312 317 316 317 316 312 314 316 319 317 314 313 311 312 311 310 309 309 308 306 306 304 301 297 294 294 293 292 290 288 287 287 286 286 285 285 285 285 284 284 284 284 283 283
312 312 315 318 316 314 313 312 313 313 314 310 310 309 312 311 310 310 308 306 306 304 299 296 294 294 293 291 288 287 286 286 285 285 285 285 284 284 284 284 283 283 283 283
316 311 312 316 313 314 314 311 314 317 316 309 313 312 312 311 310 310 308 305 306 303 299 295 294 294 292 289 287 286 285 285 285 285 284 284 284 284 284 283 283 282 282 282
311 311 315 314 311 312 314 310 309 310 308 310 311 309 307 307 308 307 306 304 304 299 296 294 293 292 290 287 286 285 285 285 284 284 284 284 284 283 283 283 282 282 282 282
314 312 312 315 311 311 314 314 310 312 311 310 308 308 309 306 304 304 303 302 300 298 295 293 292 290 288 286 285 285 285 284 284 284 283 283 283 283 283 282 282 282 282 281
312 315 316 314 313 310 313 317 312 311 311 309 309 313 310 305 303 300 299 299 297 294 293 292 289 288 286 285 285 284 284 284 283 283 283 283 283 282 282 282 282 281 281 281
317 315 314 312 312 310 318 316 311 310 310 309 310 308 305 302 300 298 296 295 294 293 292 290 287 286 285 284 284 284 283 283 283 283 282 282 282 283 282 282 281 281 281 281
313 315 316 310 312 315 311 307 307 306 306 307 305 305 304 302 299 296 294 293 293 290 288 287 286 286 284 284 284 284 283 283 283 283 282 282 282 282 281 281 281 281 281 281
312 313 309 308 310 306 306 306 306 306 305 305 305 305 303 302 299 296 294 293 291 290 287 286 285 285 284 284 284 283 283 283 282 282 282 282 282 281 281 281 281 281 281 282
311 311 309 307 306 305 305 306 304 304 304 304 305 303 302 300 298 295 293 291 290 288 286 285 285 284 284 283 283 283 282 282 282 282 282 282 281 281 281 281 281 281 282 283
309 309 308 308 306 304 303 302 302 301 302 302 301 301 300 298 297 295 292 290 289 287 286 285 284 284 283 283 283 282 282 282 282 281 281 281 280 280 281 281 281 282 282 282
312 308 308 307 304 303 303 302 301 301 300 298 299 298 298 296 296 294 291 288 287 286 285 284 283 283 283 282 282 282 281 281 281 281 281 280 280 280 281 281 282 282 282 282
307 303 302 301 300 300 299 298 297 296 296 297 296 296 297 295 294 293 290 287 286 285 284 284 283 283 282 282 282 281 281 281 281 281 280 280 280 280 281 281 281 281 281 282
301 302 303 302 302 297 296 297 298 296 296 296 296 297 295 291 291 288 286 285 284 284 284 283 283 283 282 282 281 281 281 281 280 280 280 280 280 281 280 280 280 280 280 281
299 298 301 295 294 295 294 293 293 293 293 294 295 295 295 290 288 286 285 284 284 284 283 282 282 283 282 281 281 281 281 280 280 280 280 281 280 280 280 280 280 280 281 281
295 293 294 295 294 293 293 291 295 294 293 292 293 294 294 290 287 285 283 283 283 282 283 282 282 282 281 281 281 281 280 280 280 280 280 280 280 280 280 280 280 280 280 280
296 294 292 289 288 291 292 293 293 293 292 292 291 291 289 285 283 283 283 283 283 283 282 282 282 281 281 281 281 280 280 280 280 279 279 279 280 280 280 280 280 279 279 279
298 295 293 292 291 292 292 291 291 292 291 292 292 290 286 283 283 283 283 282 282 282 282 282 281 281 281 280 280 280 280 279 279 279 279 279 280 280 279 279 279 278 278 278
292 292 291 291 291 291 291 291 292 293 292 291 289 287 286 284 283 283 282 282 281 281 282 281 281 281 280 279 280 279 279 279 279 279 279 279 278 279 278 278 278 278 278 277
291 291 291 290 291 291 290 291 292 291 291 289 286 283 282 282 282 282 282 281 282 281 281 281 280 280 279 279 279 280 280 279 279 279 278 278 278 277 277 277 277 277 277 277
290 289 289 289 288 289 290 290 289 288 288 285 284 283 282 282 282 281 281 280 282 281 281 280 279 279 278 279 280 280 279 279 278 278 277 276 276 276 276 276 276 276 276 276
288 288 288 289 287 288 288 287 286 286 286 284 283 282 281 281 281 281 281 281 281 280 279 279 278 278 279 280 280 279 278 277 276 276 276 276 276 275 275 275 275 276 276 276
288 288 288 288 287 287 287 287 285 284 283 283 282 281 281 281 281 280 279 280 279 279 279 278 278 279 279 279 278 277 276 276 275 275 275 275 275 275 275 275 276 276 275 275
288 287 287 287 287 286 285 284 283 282 282 281 281 281 281 281 280 279 278 278 277 278 278 277 277 278 278 277 276 275 275 275 275 275 275 275 275 275 275 275 275 275 275 275
287 285 285 285 284 284 283 281 281 281 281 280 280 280 279 279 278 278 277 277 276 276 276 275 276 276 275 275 275 274 274 275 274 275 276 275 274 275 275 275 274 274 275 274
284 284 284 284 283 283 282 282 280 280 280 279 278 278 278 277 276 276 276 275 275 275 275 275 275 275 275 274 274 274 274 274 274 274 274 274 274 274 274 273 273 273 273 272
284 282 282 281 281 281 281 281 280 278 279 278 278 277 276 276 275 275 274 274 274 274 274 274 274 274 274 274 274 274 274 273 274 274 274 274 273 272 272 272 272 272 272 272

GFSNGP_925_thetae_012.txt.gz
Theta_e
320 320 321 321 322 320 323 325 326 325 323 322 320 320 319 317 316 315 315 314 312 312 309 305 301 299 296 294 292 290 289 289 288 288 287 287 287 287 286 286 286 286 286 286
318 318 320 321 320 321 323 324 323 322 322 319 317 317 316 316 316 316 315 313 312 311 309 304 301 298 295 293 290 289 288 288 287 287 287 287 286 286 286 286 286 286 286 285
324 316 318 322 321 320 320 320 320 322 322 317 315 315 316 317 315 315 314 312 312 311 308 302 299 297 296 292 289 288 287 287 286 286 286 286 286 285 286 286 286 285 285 285
318 317 326 321 314 319 320 320 318 319 317 317 317 316 314 314 314 313 312 311 311 309 304 300 297 295 292 290 289 287 287 286 286 286 285 285 285 285 286 285 285 285 285 284
321 320 319 315 314 315 319 321 316 317 315 315 313 314 313 310 309 309 309 308 309 306 301 297 295 293 291 289 287 287 287 286 285 285 285 285 285 285 285 285 285 284 284 284
318 321 325 317 315 313 315 319 314 315 315 315 314 318 316 309 307 306 305 304 303 299 297 296 292 290 290 288 286 287 286 285 285 284 284 284 285 285 284 284 284 284 283 283
323 326 319 315 314 314 319 321 314 314 314 314 316 314 310 306 304 303 302 300 297 296 296 293 290 289 288 286 286 285 285 284 284 284 284 284 284 284 284 284 284 283 283 283
322 325 323 313 313 318 317 314 314 314 313 312 310 308 308 306 303 301 299 297 296 295 293 290 289 287 286 286 285 284 284 284 284 284 284 283 284 284 284 283 283 283 283 283
318 318 313 311 313 311 313 313 311 311 309 309 309 308 307 306 303 301 299 296 294 294 291 289 287 286 286 286 284 284 284 284 284 284 284 284 284 283 283 283 283 283 283 284
314 313 311 310 309 309 310 310 309 308 308 308 308 307 307 306 304 302 298 296 294 292 291 289 286 285 285 284 283 283 284 284 284 284 284 283 283 283 282 282 282 283 283 284
313 311 310 310 310 309 307 307 307 306 306 306 306 305 305 304 303 301 298 295 293 292 291 289 286 285 284 283 283 283 283 284 284 283 283 283 283 282 282 282 282 283 283 283
319 314 314 312 309 307 308 307 307 305 304 302 303 303 302 302 301 300 297 294 292 290 289 286 285 284 283 283 283 283 283 284 283 283 283 282 282 282 282 282 282 282 282 282
313 311 308 310 308 306 306 304 303 303 302 301 299 300 300 300 299 297 294 291 290 289 287 285 284 284 283 282 282 282 283 283 283 283 282 282 282 282 282 282 282 282 282 282
306 306 307 307 307 304 303 302 300 299 298 299 299 298 297 297 296 294 291 289 287 286 285 284 283 283 283 282 282 282 282 282 282 282 282 282 282 282 282 281 282 282 281 281
304 303 307 303 302 301 300 298 298 298 298 297 297 297 297 295 294 291 287 285 285 284 284 283 283 283 282 282 282 282 282 282 281 282 282 281 281 281 281 281 281 281 281 281
300 300 302 302 299 297 297 297 298 297 297 297 296 296 296 294 292 287 285 284 285 285 284 283 283 283 282 281 282 282 282 281 281 281 281 281 281 281 281 281 281 281 281 280
301 299 298 296 296 296 298 298 297 297 296 296 295 294 293 290 287 285 284 284 284 283 283 282 283 282 281 282 281 281 281 281 281 281 281 281 281 281 281 281 280 280 280 279
305 303 302 300 298 296 296 296 295 295 296 295 293 292 291 288 289 286 284 283 282 282 282 282 282 281 282 281 281 281 281 281 281 281 281 280 280 280 280 280 280 279 279 279
300 298 296 296 296 295 295 295 294 294 293 293 292 292 291 288 286 284 283 283 283 283 283 281 281 281 281 280 280 280 281 281 281 280 280 280 280 280 279 279 279 279 278 278
295 294 294 293 293 293 293 293 292 292 292 291 290 288 287 285 283 283 282 283 283 283 281 281 281 281 280 279 279 281 281 281 280 280 279 279 279 279 278 278 278 278 278 277
294 293 293 293 292 291 291 291 291 291 289 287 287 286 285 283 282 282 282 283 282 281 281 280 280 280 279 279 281 281 280 279 279 279 278 278 278 278 278 277 277 277 277 277
292 292 291 290 290 289 288 288 288 287 286 285 283 283 282 282 281 281 281 282 281 280 280 280 279 279 280 280 280 279 279 278 278 277 277 277 277 277 277 277 276 276 277 276
291 291 290 290 290 289 287 286 285 284 284 283 282 281 282 282 282 282 283 280 280 279 279 279 278 279 279 279 278 277 277 277 277 277 277 277 277 276 276 276 276 276 276 276
289 289 289 288 287 287 288 283 282 282 282 281 281 281 281 281 280 279 279 278 278 278 278 277 277 278 278 277 276 276 276 276 276 276 276 276 276 276 276 275 275 275 275 275
288 286 285 286 287 286 283 281 281 281 280 280 280 279 279 279 279 278 277 276 276 276 276 276 276 276 276 276 276 276 276 276 276 276 276 275 275 275 275 275 275 274 275 274
286 286 285 285 285 284 282 281 281 281 280 280 278 278 277 277 276 276 275 275 275 275 275 275 275 275 275 275 275 275 275 275 275 275 275 275 275 275 274 274 274 274 273 273
284 283 282 281 281 281 281 281 281 280 279 279 278 276 275 275 275 275 274 274 274 274 274 274 274 274 275 275 275 275 275 275 274 274 274 274 273 273 273 273 273 272 272 272

GFSNGP_925_thetae_015.txt.gz
Theta_e
322 323 324 326 327 327 328 328 328 327 325 324 323 322 321 319 319 319 318 317 316 315 313 310 307 304 301 299 296 294 293 292 291 290 289 289 289 288 288 288 288 288 288 288
323 322 322 324 324 325 326 327 327 326 326 324 322 321 321 320 319 319 318 317 316 315 313 310 307 303 300 297 294 293 292 290 289 289 289 288 288 288 288 288 288 288 288 287
325 320 323 325 323 323 323 323 324 325 325 324 319 319 320 320 319 318 317 316 316 314 313 310 306 302 299 296 293 292 290 289 288 288 288 288 287 287 288 288 288 288 287 287
324 321 328 322 318 321 322 322 322 323 323 320 320 318 318 318 317 317 316 315 314 313 312 308 304 300 298 293 292 290 289 289 288 288 287 287 287 287 287 287 287 287 287 286
325 327 327 323 317 319 322 322 321 321 321 319 318 316 314 313 314 314 313 313 313 312 308 303 300 297 294 292 290 289 289 288 288 287 287 287 287 287 287 287 287 286 286 285
326 325 327 319 317 315 319 323 321 322 320 318 316 320 317 311 310 310 309 310 309 306 302 300 297 295 293 292 290 289 288 287 287 286 286 286 286 286 286 286 286 285 285 285
326 327 327 317 315 315 320 323 315 317 318 317 317 317 312 309 308 307 306 304 302 301 300 297 294 294 293 290 288 287 286 286 286 286 286 286 286 286 286 286 285 285 285 284
326 328 328 316 315 319 319 316 315 316 316 316 312 310 309 307 305 304 302 300 300 299 296 294 293 292 290 288 287 286 286 286 286 286 286 286 286 286 285 285 285 284 284 284
323 325 315 315 315 314 316 316 315 315 314 312 311 309 308 306 304 302 300 299 298 297 294 293 291 290 289 288 286 286 286 286 286 286 286 286 285 285 285 284 284 284 284 284
316 315 315 314 312 313 315 314 313 311 311 310 310 309 308 306 304 302 300 299 298 296 294 291 289 287 287 286 285 285 286 286 286 286 286 285 285 285 284 284 284 284 284 284
316 314 312 312 312 311 311 310 309 309 309 309 309 308 307 307 306 304 301 298 297 296 295 292 289 287 286 285 285 285 285 285 286 286 285 285 285 284 284 283 283 283 284 283
318 316 316 315 312 310 310 309 308 307 306 306 307 306 306 305 304 303 300 297 296 295 293 290 288 287 286 285 284 285 285 285 285 285 285 284 284 284 283 284 284 283 283 283
316 314 313 312 310 310 309 308 308 307 306 304 303 303 303 303 302 300 298 296 294 293 291 288 287 286 285 284 284 284 284 284 284 284 284 284 283 283 283 283 283 283 283 283
310 311 311 310 310 308 307 305 304 303 302 302 301 301 300 300 299 298 295 294 292 289 288 287 286 285 285 284 284 284 284 284 284 284 283 283 283 283 283 282 282 283 282 282
309 307 310 309 307 306 304 302 301 301 300 300 299 299 298 297 296 295 292 289 288 287 286 285 285 285 284 283 283 283 283 283 283 283 282 283 282 282 282 282 282 282 282 282
306 306 306 306 304 302 301 301 300 300 300 299 298 297 297 296 295 291 288 287 287 287 286 285 285 284 283 283 283 283 283 283 283 282 282 282 282 282 282 282 282 282 281 281
303 301 299 299 300 301 300 300 300 299 298 298 297 296 295 293 291 289 287 286 286 285 285 284 284 283 283 283 283 283 282 282 282 282 282 282 282 281 281 281 281 281 280 280
308 305 304 302 302 300 299 298 298 298 298 297 296 295 294 292 292 289 287 285 284 284 284 284 283 282 283 283 282 281 281 282 282 282 282 281 281 281 281 281 280 280 280 279
305 305 303 300 299 298 297 297 297 296 296 295 295 294 294 292 291 288 285 284 285 285 285 283 282 282 282 282 281 281 281 282 282 282 281 281 280 280 280 280 280 279 279 279
299 297 296 296 296 296 296 295 295 295 294 294 294 293 292 290 287 285 284 285 285 284 283 282 282 282 281 281 280 281 282 282 281 280 280 280 280 279 279 279 279 279 278 278
297 296 295 295 294 294 294 294 294 293 291 290 290 290 288 286 284 284 284 285 283 282 282 281 281 281 280 280 281 281 281 281 280 279 279 279 279 279 279 278 278 278 277 277
296 295 294 293 293 291 291 291 290 290 288 287 286 286 284 283 283 283 282 283 282 281 281 281 281 280 280 280 280 280 280 279 278 278 278 278 278 278 278 277 277 277 277 277
294 293 293 292 293 291 289 288 287 287 286 285 284 283 284 284 284 284 284 281 281 280 280 280 280 279 279 279 279 279 278 278 278 278 278 278 277 277 277 277 277 276 276 276
292 292 292 290 290 290 288 285 284 283 283 282 282 282 282 283 281 280 280 279 278 278 278 278 278 278 278 278 277 277 277 277 277 277 277 277 277 277 276 276 276 276 275 275
290 288 288 289 290 288 285 283 282 282 282 281 280 280 280 280 281 279 278 277 277 277 277 277 277 277 277 277 277 277 276 277 277 277 277 276 276 275 275 275 275 275 275 275
289 289 289 289 288 286 284 284 284 283 282 281 280 279 278 277 277 277 276 276 276 276 276 276 276 276 276 276 276 276 276 276 276 276 276 275 275 275 274 274 274 274 273 273
286 286 285 284 284 283 283 283 283 282 282 281 279 277 277 276 276 275 275 275 275 275 275 275 275 275 275 275 275 275 275 275 275 275 275 274 273 273 273 273 272 272 272 272

GFSNGP_925_thetae_018.txt.gz
Theta_e
323 326 326 328 328 328 327 327 327 325 322 318 319 317 316 316 317 317 317 315 313 311 308 308 306 304 302 299 296 294 293 292 291 290 289 289 289 288 288 288 288 288 288 288
323 324 325 328 327 327 326 325 324 325 325 322 317 316 315 315 316 317 317 315 313 312 309 307 305 303 300 297 294 293 292 291 290 289 289 288 288 288 287 287 288 288 288 287
322 321 322 324 324 325 325 324 325 327 324 322 317 318 316 315 315 316 315 314 313 311 309 307 305 301 298 296 293 292 291 289 289 288 288 288 287 287 287 287 287 287 287 287
323 321 325 321 317 320 321 321 321 320 320 320 317 315 313 314 314 314 314 314 312 310 310 307 303 300 297 294 292 291 290 289 288 288 287 287 287 287 287 287 287 286 286 286
323 325 324 323 317 319 320 321 319 319 319 316 314 312 311 310 310 311 310 310 310 311 306 303 301 297 294 292 291 290 289 288 288 287 287 286 286 286 286 286 286 286 286 285
324 324 326 319 316 314 317 321 315 317 317 315 314 316 312 309 308 308 308 308 306 304 302 300 295 294 293 291 290 289 288 287 287 286 286 286 286 286 286 286 286 285 285 284
326 326 324 317 315 314 321 321 314 315 316 314 314 312 309 307 306 305 304 302 301 300 299 296 295 294 291 290 288 287 287 287 286 286 286 286 286 286 286 286 285 285 284 284
324 327 326 315 314 319 317 315 314 314 313 311 309 308 306 305 303 301 300 300 300 296 294 294 294 292 290 288 287 287 286 286 286 286 286 286 286 286 285 285 284 284 283 283
323 324 316 313 314 314 315 314 313 311 310 309 307 306 305 303 301 300 299 299 297 294 293 292 292 290 288 287 286 286 286 286 286 286 286 286 286 285 285 284 284 283 283 283
317 314 314 313 312 313 313 311 310 309 308 308 307 306 304 302 300 299 298 298 295 293 291 290 289 288 287 287 286 285 286 285 285 286 286 285 285 285 284 284 283 283 283 283
315 314 312 312 311 310 309 308 308 307 307 307 306 305 304 302 301 299 298 297 295 294 291 289 288 287 286 286 285 285 285 285 285 285 285 285 284 284 284 284 284 284 284 283
318 314 314 312 309 308 308 307 306 306 305 304 304 304 303 302 301 299 297 297 296 294 291 289 287 286 286 285 285 284 284 284 284 284 284 284 283 283 283 283 283 283 283 283
313 311 311 309 308 307 307 306 305 303 303 302 302 301 301 300 301 300 297 296 294 292 289 288 287 286 285 284 284 284 284 284 284 284 284 283 283 282 282 282 282 282 282 282
309 309 309 308 308 306 305 304 303 301 300 300 300 300 300 298 298 296 294 293 292 289 288 287 286 285 285 284 284 284 283 284 284 283 283 283 282 282 282 281 281 281 281 282
307 308 307 306 304 302 300 299 298 298 298 298 299 297 297 295 294 292 291 290 288 287 286 286 285 285 284 284 283 283 283 283 283 283 283 283 282 282 282 281 281 281 281 281
303 303 304 303 301 299 298 298 298 298 297 296 295 296 296 295 291 289 288 287 287 286 285 285 285 284 284 283 283 283 283 283 283 283 282 282 282 281 281 281 281 280 280 280
302 302 301 298 299 298 298 297 297 296 295 294 294 295 293 291 289 287 287 287 286 285 285 284 284 284 283 283 283 282 282 281 282 282 282 282 281 281 281 280 280 280 279 279
303 300 301 300 299 297 296 296 295 295 294 295 295 294 291 290 288 287 286 285 285 284 284 284 283 283 283 283 282 282 281 281 281 282 282 281 281 281 280 280 279 279 279 279
302 302 300 298 296 296 295 294 295 295 295 294 294 293 292 291 289 287 285 284 284 284 283 283 283 283 282 282 281 281 281 281 282 282 281 280 279 279 279 279 279 279 278 278
299 296 295 295 295 295 294 295 294 294 294 294 294 292 290 288 286 285 284 284 283 283 283 282 282 282 281 281 281 281 281 281 281 280 279 279 278 278 278 278 278 278 277 277
295 294 294 294 293 294 294 294 293 291 291 291 290 289 287 285 285 284 283 282 282 282 282 282 281 281 280 280 281 280 280 280 279 278 278 278 278 278 278 277 277 277 277 277
294 293 292 292 291 290 291 291 290 289 288 287 286 285 284 283 283 282 282 282 281 281 281 281 280 280 280 280 279 279 279 278 278 278 278 278 278 277 277 277 277 276 276 276
292 291 291 290 288 287 288 288 287 287 285 285 284 284 283 283 283 282 281 281 281 280 279 279 279 279 280 279 278 278 277 277 277 277 277 277 277 277 277 276 276 276 275 275
290 290 290 289 288 286 284 284 284 283 283 282 282 282 282 281 280 280 280 279 279 278 278 278 278 279 279 277 277 277 277 276 276 276 277 277 276 276 275 275 275 275 275 274
288 288 289 288 286 284 283 282 282 281 281 280 280 280 281 281 281 278 278 277 277 277 277 277 277 277 276 276 276 276 276 276 276 276 276 275 275 275 274 274 274 273 274 273
288 287 287 288 285 284 283 283 282 281 280 280 279 279 278 278 278 277 276 276 276 276 276 276 275 276 276 275 275 275 275 275 275 275 275 274 274 273 273 273 272 272 272 272
286 285 284 283 284 284 283 283 282 282 281 280 278 277 277 276 276 276 276 275 275 275 275 275 275 275 275 275 275 274 274 274 274 274 273 272 272 271 271 272 272 272 271 271

GFSNGP_925_thetae_021.txt.gz
Theta_e
319 321 325 327 325 324 328 327 328 319 320 317 315 314 313 316 316 315 315 313 311 308 306 304 302 302 299 297 295 294 293 293 292 291 290 289 289 288 288 288 288 287 287 287
326 326 325 329 328 326 326 325 325 324 325 316 314 312 313 315 317 316 315 313 311 308 306 304 302 299 297 295 294 294 293 292 290 290 289 288 288 288 287 287 287 287 287 286
323 326 327 330 327 326 326 324 324 326 323 315 315 315 314 314 317 316 314 312 311 309 306 303 300 298 295 294 293 292 291 290 289 289 288 288 287 287 287 286 286 286 286 286
323 319 323 318 318 323 325 323 322 323 320 317 314 311 310 311 313 314 313 312 311 308 305 302 299 297 295 293 292 291 290 289 288 288 287 287 287 286 286 286 286 286 285 285
323 323 320 318 315 318 319 320 317 320 317 314 311 311 310 308 309 310 310 309 308 306 302 299 297 295 294 292 291 290 289 288 288 287 287 286 286 286 286 286 286 285 285 284
321 320 324 318 315 312 315 320 315 314 315 314 312 315 311 307 307 305 304 304 301 299 297 296 293 294 292 291 290 289 288 288 287 287 286 286 286 286 286 285 285 285 284 284
324 325 320 317 313 312 319 318 313 313 313 312 312 310 307 305 302 300 300 299 298 296 294 293 293 293 291 290 288 288 287 287 286 286 286 286 286 286 285 285 285 284 283 283
324 326 322 314 313 317 314 313 311 309 308 308 307 306 304 302 301 300 298 296 296 294 293 293 293 292 289 288 288 287 287 286 286 286 285 286 286 285 285 284 284 283 283 283
320 322 316 313 314 313 312 312 311 308 306 306 305 304 302 300 299 298 297 294 294 292 292 292 291 291 288 287 287 286 286 286 286 285 286 286 285 285 284 284 283 283 282 282
317 314 313 312 312 312 310 309 307 306 305 305 304 302 300 299 298 297 296 293 292 291 289 288 289 289 288 287 286 286 285 285 285 285 286 285 284 284 283 283 283 283 283 283
313 312 311 311 311 308 307 306 306 305 305 304 303 302 300 299 297 296 295 293 292 290 288 287 287 287 287 286 285 285 285 285 285 285 284 284 283 283 283 283 283 283 283 283
317 312 311 310 308 307 307 307 306 305 304 303 303 302 300 299 297 296 294 293 292 290 289 287 287 286 286 285 285 284 284 284 284 284 284 283 282 282 282 282 283 283 282 282
313 310 309 308 306 306 305 304 303 303 303 302 301 301 300 298 297 297 295 294 292 290 288 287 286 285 285 284 284 284 284 284 284 283 283 283 282 282 281 281 281 281 281 282
307 308 308 308 307 304 304 302 301 300 300 300 299 299 298 297 296 294 293 292 290 288 287 286 285 285 284 284 284 284 284 284 283 283 283 283 282 282 281 281 280 280 280 281
306 306 307 304 302 301 300 299 299 298 297 296 297 297 295 293 291 290 291 290 288 287 286 285 285 284 284 284 284 283 283 283 283 283 282 282 281 281 281 280 280 280 280 280
301 302 303 302 300 298 297 297 298 297 296 294 294 293 293 291 289 288 288 288 286 285 285 285 284 284 283 283 283 283 282 282 282 282 281 281 281 281 280 280 280 279 279 279
303 299 299 298 298 297 297 296 296 296 294 293 292 291 289 287 286 286 286 287 286 285 284 284 284 283 283 283 283 282 281 281 281 281 281 281 281 280 280 279 279 279 279 278
301 300 301 300 298 296 295 295 294 294 293 293 292 290 288 287 285 285 284 285 284 284 283 283 283 283 283 282 282 281 281 281 281 281 281 280 280 279 278 278 278 278 278 278
300 299 298 295 295 295 294 294 294 293 294 293 291 290 290 288 286 285 284 283 283 283 282 283 282 282 282 281 281 281 281 280 280 280 279 279 278 278 278 278 278 278 277 277
299 296 295 294 294 294 293 293 293 293 293 293 290 288 285 285 285 284 283 282 283 283 282 282 282 281 281 280 281 280 279 279 279 278 278 278 277 277 277 277 277 277 276 276
296 295 294 294 293 293 293 293 292 291 292 292 289 285 284 284 284 283 282 281 281 282 282 281 281 280 280 281 280 279 278 278 278 277 277 277 277 277 277 276 276 276 276 276
294 294 293 292 291 289 290 290 289 288 287 286 285 284 283 282 282 282 282 282 281 281 280 280 280 280 280 280 278 277 277 277 277 276 276 276 276 276 276 276 276 275 275 275
293 291 290 289 288 286 287 287 286 286 284 284 283 283 282 282 282 281 280 280 280 280 278 278 279 280 280 278 277 276 276 276 276 276 276 276 276 276 275 275 275 274 274 274
290 288 286 285 285 284 282 282 283 283 282 282 282 282 282 280 280 280 280 279 279 278 277 278 279 279 277 276 276 276 276 275 275 275 276 275 275 275 274 274 274 273 273 273
287 286 285 284 283 281 280 281 281 281 281 280 280 281 281 281 281 278 278 277 277 277 276 276 276 277 276 275 275 275 275 274 274 275 274 274 274 273 272 272 271 272 273 272
287 286 285 285 282 281 281 281 280 279 279 278 278 278 278 278 277 277 276 276 276 276 276 275 275 275 275 275 275 274 274 273 273 273 273 273 272 272 272 271 271 271 271 271
285 284 283 282 282 282 282 281 280 280 279 278 276 276 276 276 276 276 276 276 276 275 275 275 274 274 274 274 274 273 273 273 273 272 272 272 272 272 272 271 272 272 272 272

GFSNGP_925_thetae_024.txt.gz
Theta_e
317 316 317 323 321 321 316 320 321 324 324 320 314 313 315 314 314 313 313 312 310 307 304 301 299 297 297 296 295 294 293 293 292 291 290 289 289 288 288 287 287 287 287 286
317 318 320 323 324 322 319 317 317 320 326 315 312 310 313 314 314 314 313 312 309 307 304 301 299 296 295 294 294 294 293 292 291 290 289 288 288 287 287 287 287 286 286 285
327 325 325 330 327 316 316 320 319 327 321 314 315 313 313 313 315 314 313 311 309 306 304 302 298 296 294 294 293 293 293 291 290 289 288 287 287 287 286 286 286 286 285 284
326 326 324 318 317 325 325 324 321 322 317 315 314 309 309 310 313 313 313 311 308 306 304 300 297 295 295 293 293 292 291 290 289 288 287 287 287 286 286 286 286 285 285 284
327 323 319 317 315 319 324 324 316 321 315 313 311 311 311 307 310 311 310 309 307 305 300 297 295 294 294 292 292 291 290 289 288 287 287 286 286 286 286 286 285 285 284 283
317 321 324 318 314 312 314 319 314 314 313 312 311 316 312 306 305 304 304 303 301 298 296 294 292 294 292 291 290 289 289 288 287 287 286 286 286 286 286 285 284 284 283 283
320 325 319 316 313 312 320 316 313 312 312 312 312 309 305 300 299 298 298 296 296 295 293 291 293 293 290 290 289 289 288 287 287 286 286 285 286 285 285 284 284 283 283 283
321 322 318 314 313 316 312 311 310 308 308 307 306 304 302 300 299 297 295 294 293 291 290 291 293 293 289 289 288 288 287 286 286 286 285 286 285 285 284 283 283 283 283 283
319 318 314 312 313 313 310 310 309 306 306 305 304 303 301 299 297 294 293 292 292 291 290 291 292 292 288 287 287 287 286 286 285 285 286 285 284 283 283 283 283 283 282 282
319 316 314 312 312 311 310 308 305 304 305 304 302 301 299 297 295 293 292 291 290 289 288 287 289 290 289 287 287 286 285 285 285 285 285 284 283 283 282 282 282 283 282 282
314 312 311 311 310 307 305 304 303 302 302 301 300 299 298 297 295 292 291 290 289 288 287 287 288 288 287 286 286 285 285 285 284 284 284 283 283 282 282 282 283 283 282 282
317 312 311 310 307 306 306 305 304 303 302 300 300 299 297 296 295 292 291 290 289 287 287 286 287 286 285 285 285 285 284 284 284 284 283 283 282 282 282 282 282 282 282 282
313 308 308 307 305 305 305 304 303 302 302 301 299 298 297 295 294 294 292 290 289 288 287 286 286 285 285 284 284 284 284 284 284 283 283 282 282 281 281 281 281 281 281 281
306 308 308 307 306 303 303 302 301 300 300 299 298 298 297 295 294 292 291 291 289 288 286 286 285 284 284 284 284 284 284 283 283 282 282 282 282 281 281 280 280 279 279 280
305 305 306 303 301 300 300 300 299 298 297 296 296 295 294 292 290 290 290 289 288 286 285 285 284 283 283 283 283 283 283 282 282 282 281 281 281 281 280 280 279 279 278 278
301 302 302 302 300 299 298 297 297 296 295 294 293 292 291 290 288 288 287 287 286 284 284 284 284 283 283 283 283 283 282 281 282 281 281 281 280 280 279 279 278 278 278 278
303 299 299 298 298 297 297 296 296 295 294 294 291 288 287 286 285 285 286 286 286 284 284 284 283 283 283 283 283 282 281 281 281 281 280 280 279 279 278 278 278 278 278 278
301 300 300 299 297 295 295 294 294 295 294 291 288 287 285 285 284 283 284 284 284 283 283 283 283 283 283 282 282 281 281 280 280 280 279 278 279 278 277 277 277 277 277 277
300 299 297 295 295 295 294 294 294 293 291 289 288 286 286 285 284 283 283 283 283 282 282 282 282 282 282 281 282 281 279 279 279 278 277 278 277 277 277 277 277 277 276 276
296 295 295 294 295 295 294 294 293 291 290 290 288 286 284 284 283 283 283 282 282 282 282 282 282 281 280 280 281 279 278 278 277 277 277 277 276 276 276 276 276 276 276 276
295 295 295 295 294 294 293 293 292 290 289 289 286 284 283 283 283 282 282 281 281 282 282 281 281 280 280 281 279 277 277 277 276 276 276 276 276 275 276 275 275 275 275 275
295 295 294 293 292 290 291 291 290 289 288 286 284 283 282 281 282 281 282 282 281 281 280 280 280 280 281 279 277 276 276 276 276 275 275 275 275 275 274 274 274 274 274 273
294 293 292 291 289 286 287 287 287 286 284 283 282 282 281 281 281 280 279 280 280 279 278 279 280 280 279 276 276 276 276 275 275 275 275 275 274 274 274 273 273 273 272 272
291 289 287 286 285 285 282 281 284 284 283 283 282 282 281 280 280 280 280 280 278 277 278 279 278 278 276 276 276 276 275 274 274 274 274 274 273 273 272 272 272 272 271 272
287 286 285 284 283 281 280 280 281 281 281 280 280 281 281 281 281 278 278 278 277 277 276 276 276 276 275 275 275 275 274 274 273 274 273 273 272 272 272 272 272 271 272 272
286 285 284 284 282 281 280 280 279 279 278 277 278 278 278 278 278 277 276 276 276 276 275 275 275 275 275 275 274 274 274 273 273 273 273 272 273 273 272 272 272 272 272 273
284 283 282 281 281 280 280 280 279 279 278 277 276 277 277 276 276 276 276 276 275 275 275 274 274 274 274 274 274 274 273 273 273 272 273 273 273 273 273 273 273 274 274 275

GFSNGP_925_thetae_027.txt.gz
Theta_e
315 314 314 316 319 316 316 316 318 316 314 312 314 319 316 314 313 313 313 310 308 305 301 298 296 295 295 294 294 294 293 293 292 291 290 289 288 288 287 287 287 287 286 285
315 315 316 319 318 318 316 315 318 318 318 315 315 312 313 313 314 314 313 311 308 305 301 297 296 294 293 293 293 294 293 292 291 290 289 288 288 287 287 286 287 286 285 285
319 323 321 322 319 320 319 318 318 319 317 315 315 313 314 313 314 313 312 310 308 305 301 298 296 294 293 293 293 293 293 291 290 289 288 287 287 287 286 286 286 285 285 284
322 323 328 323 320 319 320 318 315 316 316 316 315 311 311 311 313 312 311 310 307 304 301 297 295 294 294 293 293 292 291 290 289 288 287 287 286 286 286 286 285 285 284 283
327 324 322 315 319 319 319 321 315 315 317 313 311 311 311 308 310 309 310 308 305 303 299 296 294 294 294 292 292 291 290 289 288 288 287 286 286 286 286 285 285 284 283 283
322 323 323 317 314 311 315 319 313 318 317 313 312 316 314 307 306 306 306 304 301 298 296 294 293 294 292 291 291 290 289 288 288 287 286 286 286 286 285 284 284 283 283 283
321 324 318 315 313 311 318 316 312 312 312 311 313 309 302 300 298 299 299 297 296 295 293 291 292 292 290 290 290 289 288 288 286 286 285 285 286 285 284 283 283 283 283 283
318 321 317 310 311 315 310 311 309 308 308 306 303 301 299 298 296 296 294 293 292 290 289 290 291 293 289 289 288 288 287 286 286 285 285 285 285 284 283 283 282 282 283 283
316 316 312 311 313 312 309 310 307 306 305 303 302 300 298 295 294 293 292 291 290 289 288 290 292 293 289 287 287 287 286 285 285 285 285 285 284 283 283 282 282 282 282 282
317 314 314 312 311 309 307 306 303 303 304 303 301 298 295 294 293 292 291 290 289 289 287 287 290 290 289 287 287 286 285 285 285 285 285 284 283 283 282 282 282 282 282 282
314 311 311 311 310 306 304 303 303 301 302 301 300 298 296 293 292 290 289 289 289 288 286 286 288 287 286 286 286 285 284 284 285 284 284 283 283 282 282 282 282 283 282 282
317 313 312 310 307 304 305 304 302 301 300 299 299 297 295 293 291 290 288 288 287 286 286 285 286 285 285 285 285 285 284 284 284 284 283 282 282 282 281 281 282 282 282 282
314 308 306 305 304 304 304 302 301 301 300 298 296 296 294 292 290 291 288 287 286 286 286 285 285 285 284 284 284 284 284 284 283 283 282 282 281 281 280 280 280 280 280 280
305 306 307 307 306 303 302 301 300 298 298 297 296 295 294 293 291 289 288 287 287 286 285 285 284 284 284 284 284 284 283 283 282 282 281 281 281 281 280 279 279 279 278 279
304 304 306 303 302 301 300 300 299 298 297 295 295 294 293 290 289 288 288 287 286 286 285 284 284 283 283 283 284 283 283 282 282 281 281 281 280 279 279 279 278 278 278 277
300 301 302 302 300 299 298 298 298 297 295 293 292 291 290 289 287 286 287 286 285 283 284 284 283 283 283 283 283 282 281 281 282 281 280 280 279 279 278 278 277 277 277 277
302 300 299 299 298 298 298 298 297 295 294 294 290 287 287 285 284 284 285 286 285 284 284 284 283 283 283 283 282 281 281 280 280 280 279 278 278 278 277 277 277 277 277 277
302 300 301 300 298 296 294 294 294 295 293 289 287 286 285 285 283 283 283 283 283 283 283 283 283 282 282 282 281 281 280 279 279 278 278 277 278 277 277 276 276 276 276 276
299 298 297 296 295 295 294 293 293 291 289 287 286 285 285 284 283 283 283 283 282 282 282 283 282 282 281 281 281 280 279 278 278 277 277 277 276 276 276 276 276 276 275 275
295 295 295 294 294 294 293 293 291 289 288 287 286 284 282 282 283 282 283 282 282 282 282 282 281 281 280 281 280 278 278 277 276 276 276 276 275 276 275 275 275 275 275 275
295 295 294 294 294 294 293 292 290 288 287 287 285 283 282 282 282 282 282 281 281 282 282 281 281 280 281 280 278 277 276 276 276 275 275 275 275 275 274 274 273 274 273 274
294 294 294 294 293 292 291 290 289 287 286 285 284 283 282 281 281 281 282 282 281 281 280 280 280 281 280 277 276 276 276 276 275 275 274 274 274 274 273 273 272 272 273 272
294 293 292 291 289 287 287 287 287 286 283 283 282 282 281 281 281 281 280 281 280 279 279 280 280 280 278 276 276 276 275 275 274 274 274 274 273 273 273 272 272 272 272 271
292 290 288 287 287 286 283 282 284 284 283 283 283 282 282 281 281 281 281 280 279 278 278 278 279 278 276 276 275 275 274 274 274 274 273 273 273 273 272 272 272 272 272 273
288 287 286 286 284 281 280 281 281 281 281 281 281 281 281 281 281 279 279 278 277 277 276 276 276 276 275 275 275 274 274 274 274 273 273 273 273 273 273 273 273 272 273 274
287 286 284 284 282 281 280 281 279 279 279 278 279 280 280 279 278 277 277 277 276 276 275 275 275 274 274 274 274 274 274 274 274 273 272 273 273 273 273 273 273 274 274 275
283 283 281 281 280 280 280 280 279 279 278 278 277 277 277 277 277 276 276 276 275 275 274 274 274 274 274 274 274 274 274 274 273 272 273 273 274 274 274 274 274 274 275 276

GFSNGP_925_thetae_030.txt.gz
Theta_e
315 314 314 315 317 314 314 314 316 314 312 310 310 312 313 313 313 314 312 308 305 301 298 295 294 293 292 293 293 293 293 292 292 291 290 289 288 288 287 287 287 287 286 285
315 315 315 316 316 316 315 314 315 314 315 314 313 313 314 311 314 316 313 309 305 301 297 295 293 292 291 292 292 293 292 291 291 290 289 288 287 287 286 287 287 286 286 285
318 316 318 323 319 317 317 316 315 316 314 314 315 317 315 314 315 315 313 309 305 301 298 295 293 292 291 292 292 293 292 290 290 289 288 287 287 286 286 286 286 286 285 284
319 320 328 323 321 319 318 317 314 315 315 315 315 314 310 311 312 312 311 308 304 300 297 294 293 293 293 292 292 292 291 290 289 288 287 286 286 286 286 286 286 285 284 283
325 323 323 320 321 317 317 318 316 316 315 314 312 310 311 309 310 310 310 307 303 300 296 294 293 293 293 291 292 291 289 289 288 288 287 286 286 286 286 285 285 284 283 283
320 324 326 317 313 314 315 320 313 313 314 314 313 319 314 307 308 308 306 303 299 296 294 293 292 293 292 290 290 290 289 288 287 286 286 286 286 286 285 284 284 283 283 283
322 323 317 315 312 310 317 315 312 313 313 314 315 312 304 302 300 301 301 298 296 295 293 291 292 292 289 290 289 289 288 287 286 286 285 286 285 285 284 284 283 282 282 283
319 321 316 310 311 315 310 310 310 309 309 309 303 301 299 298 297 297 296 294 292 291 289 290 291 292 289 289 288 287 286 286 285 285 285 285 285 284 283 283 282 282 282 282
316 315 311 310 312 310 308 308 307 306 304 302 300 298 296 294 293 292 291 290 290 289 288 289 291 292 288 286 287 286 286 285 285 285 285 285 284 283 283 282 281 282 282 282
316 314 312 311 310 306 305 304 303 302 302 300 297 295 293 293 292 291 290 289 289 288 287 286 289 289 287 286 286 286 285 284 285 285 285 284 283 283 282 282 281 282 282 282
313 312 309 309 308 304 302 302 301 300 300 297 296 295 293 291 290 289 289 289 289 287 285 284 287 286 286 286 286 285 284 284 284 284 284 283 283 282 282 281 282 282 282 282
316 313 311 309 305 303 303 302 301 300 299 297 296 294 292 291 290 289 288 287 285 284 284 284 285 285 285 285 285 285 284 284 284 283 283 282 282 282 281 281 281 281 281 281
313 307 306 305 304 303 302 300 300 299 298 296 294 293 292 290 289 289 286 286 284 283 284 284 284 284 284 284 284 284 284 284 283 283 282 281 281 281 280 280 279 279 280 280
305 305 307 307 305 301 301 300 298 296 295 295 293 292 292 290 288 286 285 284 284 284 284 284 283 283 283 284 284 284 284 283 283 282 281 281 281 280 279 279 278 278 278 278
304 304 306 302 301 300 299 298 298 296 295 293 293 291 290 288 286 284 284 285 285 284 283 283 283 282 283 283 284 283 283 282 282 281 280 280 279 278 278 278 277 277 277 277
300 301 302 302 300 299 298 298 297 295 294 292 291 289 287 285 284 284 285 285 284 282 283 283 283 283 283 283 283 282 282 281 281 280 279 279 278 278 278 277 276 276 276 276
303 301 300 299 299 298 298 297 296 295 293 292 288 286 285 284 283 283 284 285 284 283 283 283 282 282 283 283 282 281 281 279 280 279 278 277 277 278 276 276 276 276 276 276
302 300 302 301 299 297 296 295 294 293 291 289 286 285 285 284 282 281 282 283 283 282 282 282 282 282 282 282 282 280 279 278 278 277 277 277 278 276 276 276 276 276 276 275
300 299 298 297 297 295 294 293 291 290 288 287 286 284 283 282 282 282 283 283 282 282 282 282 282 281 281 282 280 279 278 277 277 276 276 277 276 276 275 275 275 275 274 274
296 295 295 294 295 294 292 291 290 288 287 286 284 283 282 281 282 282 283 281 282 282 282 281 281 281 281 280 278 277 277 276 276 276 275 275 275 275 274 274 274 273 273 273
294 294 294 294 293 292 291 290 289 287 285 285 284 282 281 281 282 282 281 280 281 281 281 281 281 280 280 279 277 277 276 276 275 275 275 275 274 274 273 273 273 272 272 273
294 294 293 293 292 291 290 289 287 285 284 283 282 282 281 281 281 281 282 282 281 281 280 280 281 280 279 277 276 276 276 275 275 275 274 274 273 273 273 273 272 272 272 272
293 293 292 292 290 287 286 286 285 285 283 282 282 281 281 281 281 281 280 280 280 279 280 280 280 279 277 276 276 276 275 275 274 274 274 273 273 273 273 273 272 272 273 273
292 291 289 287 287 286 284 282 283 283 283 282 283 283 282 281 281 281 281 280 279 279 279 279 279 277 276 275 275 275 275 274 274 274 273 273 273 273 273 273 273 273 273 273
288 287 288 288 286 283 281 281 281 281 281 281 281 282 282 282 282 280 279 278 278 277 277 277 276 275 275 275 275 275 274 274 273 273 273 273 273 273 274 273 273 273 272 274
288 288 286 286 283 282 281 281 280 279 279 278 279 280 281 281 280 279 278 277 276 276 276 275 275 275 275 275 274 274 274 274 274 273 273 273 273 274 274 274 274 274 275 275
284 283 282 281 281 281 281 280 280 280 279 278 277 278 279 278 277 277 276 276 276 275 275 274 274 274 274 274 274 274 274 274 273 273 273 273 274 274 274 274 274 275 276 277

GFSNGP_925_thetae_033.txt.gz
Theta_e
312 312 313 314 315 314 314 314 315 313 313 311 310 309 311 312 313 312 309 306 303 301 298 296 294 293 292 291 291 292 291 291 291 290 290 289 288 287 287 287 287 287 286 286
315 315 315 316 316 315 314 314 314 314 314 311 310 312 313 315 313 314 311 306 302 299 297 295 293 292 291 290 290 292 291 290 290 289 288 288 287 287 287 287 287 286 286 285
318 317 318 323 321 321 317 314 313 316 313 311 312 313 315 314 314 315 314 306 301 299 297 294 293 292 291 290 291 291 291 289 289 288 287 287 286 286 286 287 286 286 285 284
318 319 326 323 320 318 319 316 314 314 314 313 313 313 313 310 312 315 311 305 301 298 295 293 291 291 290 290 291 290 289 289 288 288 287 286 286 286 286 286 286 285 284 283
322 323 320 318 315 318 321 320 315 315 314 313 314 311 310 308 310 312 309 304 301 297 294 292 291 290 290 290 290 289 288 288 288 287 286 286 286 286 286 285 285 284 283 283
319 323 324 318 314 312 314 319 315 315 314 314 314 319 313 304 307 307 305 301 297 295 293 291 290 290 290 289 289 288 288 287 287 287 286 286 286 286 285 284 284 283 282 282
320 324 317 313 311 311 316 317 311 313 313 313 317 310 304 302 302 302 301 297 295 294 293 290 290 290 289 288 287 288 287 287 286 286 286 286 286 285 284 284 283 282 282 282
320 320 318 310 311 315 311 308 309 309 312 313 305 301 299 298 298 298 296 294 292 291 290 289 290 290 288 286 287 287 287 286 285 285 286 285 285 284 283 283 282 282 282 282
315 315 311 310 311 309 306 307 306 306 304 304 301 298 296 295 293 293 292 291 290 289 288 288 289 290 286 285 287 286 286 285 285 285 285 284 284 283 283 282 281 281 281 281
317 315 312 310 309 304 303 303 301 301 300 299 297 295 293 293 292 291 290 289 289 288 287 285 287 288 287 286 286 286 285 285 285 285 284 284 283 283 282 281 281 282 282 282
313 312 310 309 307 304 302 301 299 297 297 295 295 293 292 291 290 290 289 288 288 286 285 284 286 286 286 286 286 285 285 285 284 284 284 283 282 282 281 281 282 282 282 281
316 312 311 308 305 303 303 301 299 298 296 295 294 293 291 290 289 288 287 286 285 284 283 283 285 285 285 285 286 285 284 284 283 283 283 282 281 281 281 280 281 281 281 281
313 307 305 304 303 302 301 300 299 297 296 294 293 291 290 289 288 288 286 285 284 283 283 283 284 284 284 284 285 285 284 283 283 282 281 281 281 280 279 279 279 279 279 279
305 304 307 305 305 301 300 299 297 295 294 293 292 290 289 288 286 285 284 283 283 283 283 283 283 283 283 284 285 284 283 283 282 281 280 280 280 279 278 278 278 277 278 278
304 304 305 301 300 299 298 297 296 295 293 292 290 289 288 286 284 283 283 283 283 283 282 283 283 282 283 284 283 283 283 282 281 280 280 279 278 278 278 277 277 277 276 277
301 301 302 301 300 299 298 298 296 294 292 291 289 287 285 283 282 282 283 283 283 281 282 282 282 282 283 283 282 282 281 281 280 279 278 278 277 278 277 276 276 276 276 276
302 301 300 300 299 298 298 297 295 293 291 289 286 284 283 283 282 282 283 284 283 282 282 283 282 282 282 282 282 281 280 279 279 278 277 277 277 277 276 276 276 276 276 276
303 301 302 301 299 297 296 294 293 291 289 286 285 284 284 284 282 281 281 282 282 282 282 282 282 282 282 282 281 279 279 278 277 277 276 277 277 276 275 275 275 275 275 275
300 299 299 298 297 296 294 292 291 289 287 286 285 283 282 282 281 281 282 282 281 281 281 282 282 282 282 281 279 278 278 277 277 276 276 276 276 275 275 274 275 274 274 274
296 295 295 295 295 293 291 290 289 288 286 285 283 282 281 281 281 282 282 281 282 282 281 281 281 281 281 279 278 277 277 276 276 276 275 275 275 274 274 274 274 273 273 273
294 294 294 294 292 291 291 290 288 286 285 285 284 282 281 281 282 282 281 280 281 281 281 281 281 280 279 277 277 277 276 276 275 275 275 274 274 274 273 273 273 272 272 273
293 293 292 291 290 289 289 288 286 285 284 283 282 281 281 280 281 281 282 281 281 281 281 281 281 279 278 277 276 276 276 275 275 275 274 274 273 273 273 273 273 272 272 273
293 292 291 290 289 287 286 285 285 284 283 282 281 281 281 281 281 281 280 281 280 280 280 280 281 278 276 276 276 276 275 275 275 275 274 274 273 273 273 273 272 273 273 273
292 291 288 287 286 286 283 282 283 283 282 282 282 282 282 281 281 282 281 280 280 279 279 279 279 277 276 275 275 275 275 275 275 274 274 273 273 273 273 273 273 274 274 274
288 288 287 287 286 283 281 281 281 281 281 281 281 282 282 282 282 280 280 279 279 278 278 277 276 275 275 275 275 275 275 275 274 273 273 273 273 273 273 273 274 274 273 274
288 289 287 286 284 283 282 282 281 280 279 278 279 281 281 281 280 279 278 277 277 276 276 275 275 275 275 275 275 275 274 274 274 274 273 273 273 273 273 274 274 274 275 276
284 284 283 283 282 282 282 281 281 280 279 279 277 279 280 279 278 277 277 276 276 275 275 274 274 274 274 274 274 274 274 274 273 273 273 273 273 273 274 274 274 275 276 277

GFSNGP_925_thetae_036.txt.gz
Theta_e
314 313 314 315 316 316 315 315 316 315 315 315 313 313 312 312 314 315 316 312 310 309 309 308 304 299 295 293 292 292 292 292 292 292 291 290 289 289 289 289 288 288 287 286
315 314 315 317 318 318 317 316 315 315 316 313 313 313 312 312 313 316 315 312 308 307 306 302 297 294 293 292 291 291 291 290 291 290 290 289 289 288 288 288 287 287 286 286
320 316 318 325 323 321 320 317 316 318 315 313 313 313 313 315 315 316 315 310 307 305 301 298 295 293 292 291 292 291 291 291 290 290 289 289 288 288 288 288 287 287 286 285
320 319 327 324 319 319 319 318 315 314 314 314 314 314 315 313 313 314 314 309 306 301 297 295 294 293 292 292 292 292 291 290 289 289 288 288 288 288 287 287 287 286 285 285
321 322 320 320 318 316 319 321 317 316 315 315 314 315 313 309 313 316 311 307 304 298 296 296 294 293 293 293 292 291 291 289 289 288 288 287 287 287 287 286 286 285 284 284
321 322 324 320 316 313 316 325 315 317 315 316 316 323 316 309 310 306 306 303 300 297 297 296 294 294 293 292 292 290 289 288 288 288 288 288 287 286 285 285 285 284 284 284
320 322 321 317 316 313 319 318 313 313 315 316 319 311 306 307 307 305 302 300 298 297 296 294 293 293 292 291 290 289 288 288 287 287 287 286 286 285 285 285 284 284 284 284
322 323 323 314 318 320 316 313 312 312 312 314 307 303 303 302 301 300 299 297 295 293 292 292 292 292 292 290 288 287 287 286 285 286 285 286 285 285 284 284 284 284 284 284
319 320 316 314 315 313 310 310 310 309 309 308 304 302 299 300 299 297 295 295 295 294 293 293 292 290 288 286 286 286 285 285 286 285 285 285 285 285 285 284 284 284 284 284
320 319 317 314 311 308 307 307 305 305 305 305 302 300 298 297 296 295 294 294 293 292 291 290 288 287 286 286 286 286 286 285 285 285 284 284 284 284 284 284 283 284 284 283
319 318 317 312 310 307 305 303 302 301 301 301 300 298 297 295 293 293 292 292 292 290 289 288 287 286 286 286 286 286 286 285 285 285 284 284 283 283 283 283 282 283 282 282
321 316 315 312 308 305 305 302 300 300 298 298 298 296 295 293 292 291 290 289 289 288 287 286 286 285 285 285 286 286 285 285 285 284 284 283 283 283 281 280 281 281 281 281
317 310 309 308 306 304 303 301 299 298 297 296 295 294 293 291 290 289 289 288 287 286 286 285 285 285 284 285 285 286 285 285 284 283 283 282 282 282 281 281 280 279 279 280
309 309 310 307 308 303 301 299 297 295 295 294 293 292 291 290 289 288 287 286 286 285 285 285 284 284 284 284 284 284 284 283 283 282 282 282 281 280 280 280 279 280 279 279
308 307 307 305 302 301 298 297 297 295 294 293 291 290 290 289 288 286 286 285 285 285 284 284 284 283 283 283 284 284 283 283 282 281 281 280 279 279 279 279 279 279 279 279
305 305 304 304 302 300 299 298 297 294 293 292 291 289 288 286 286 285 285 285 286 285 284 284 283 282 283 283 283 283 283 282 280 280 279 279 279 279 279 278 279 279 279 278
305 304 303 301 301 300 300 299 297 295 293 291 288 287 286 286 285 285 285 285 284 283 283 283 282 282 283 282 281 281 280 280 279 278 278 278 279 278 278 278 278 278 278 277
305 305 303 303 302 301 298 296 295 293 291 288 287 287 287 287 286 284 283 283 283 283 282 282 282 282 282 281 280 279 279 278 278 278 277 278 278 277 277 277 277 277 277 276
303 304 303 302 300 299 296 294 293 290 288 287 287 287 287 285 284 283 283 283 283 283 282 282 282 282 281 279 279 278 278 278 277 277 277 277 277 277 277 276 276 276 276 276
300 301 300 299 297 296 294 292 290 289 288 287 285 285 284 283 282 283 283 283 284 283 282 282 282 281 279 278 278 277 277 277 277 276 276 277 276 277 276 276 275 275 275 275
299 298 298 297 295 294 292 291 290 288 286 286 286 285 283 282 282 282 283 283 281 281 281 281 281 279 278 277 277 277 276 276 276 276 276 276 276 275 275 275 275 275 274 275
297 297 296 294 293 292 291 290 289 287 286 285 284 282 282 282 282 282 282 282 281 281 281 281 280 279 277 277 277 276 276 275 275 275 275 275 275 275 275 274 274 274 274 274
296 295 294 293 292 290 288 287 287 286 284 283 283 283 283 282 282 282 282 281 281 281 281 281 280 278 277 276 276 276 275 275 275 275 274 274 274 274 274 274 274 274 274 274
293 293 291 289 288 288 286 285 285 284 283 283 282 282 282 281 281 282 282 281 281 280 281 280 279 277 276 276 275 275 275 274 274 274 274 274 273 273 273 273 273 273 273 273
290 288 288 288 289 286 284 283 282 282 282 281 281 282 282 282 282 280 280 280 280 279 279 278 276 276 275 275 275 275 274 274 274 274 274 273 273 272 272 272 272 272 273 273
289 289 289 288 286 285 283 284 283 282 281 280 280 281 282 281 281 280 280 279 278 277 276 276 275 275 275 275 275 275 275 274 274 273 273 272 272 272 272 273 273 273 274 275
287 286 285 284 284 284 284 283 282 282 281 280 279 279 279 280 279 278 277 277 276 276 275 275 275 274 274 274 275 275 275 274 274 274 273 273 273 273 273 274 274 275 275 277

GFSNGP_925_thetae_042.txt.gz
Theta_e
313 312 312 313 315 315 317 317 318 318 318 317 317 315 314 313 312 311 312 312 312 311 311 313 314 310 306 304 299 297 296 296 295 295 294 294 293 292 292 292 291 291 290 289
310 312 312 313 315 316 316 318 320 321 321 316 314 312 314 314 314 314 314 314 311 310 312 310 305 301 301 300 299 296 295 294 294 293 292 292 292 291 291 291 290 289 289 289
316 316 316 319 319 320 321 321 320 321 319 316 316 316 315 315 314 314 314 313 309 309 302 299 297 297 295 296 295 294 294 293 293 292 292 291 291 291 291 289 289 289 288 288
316 316 321 321 320 319 319 318 319 318 318 318 317 312 310 311 310 313 312 310 308 301 298 296 295 294 293 293 293 292 292 291 291 290 290 290 290 290 289 289 289 288 288 287
318 316 315 317 318 318 317 319 319 318 316 318 317 313 310 306 305 305 306 303 299 295 294 293 293 292 292 292 291 292 291 291 290 290 290 290 290 289 289 288 288 287 287 286
316 317 320 318 316 316 316 321 315 315 316 317 312 318 311 304 301 298 297 295 294 293 293 293 293 292 292 292 292 292 291 291 290 292 292 289 289 288 288 288 287 287 286 286
317 319 315 315 316 315 321 319 314 314 314 310 310 310 306 302 300 299 298 296 295 295 295 295 295 294 294 293 292 291 291 290 290 289 289 288 288 288 287 287 287 286 286 286
315 318 317 317 318 321 316 313 312 313 313 308 306 304 303 301 300 300 299 298 297 296 296 296 295 293 292 291 291 289 288 288 288 288 288 287 287 287 287 286 286 286 285 285
317 316 315 316 317 311 309 310 309 310 311 307 305 303 300 298 297 295 294 294 295 295 294 293 291 289 288 287 288 288 287 287 287 287 287 287 287 286 286 286 285 285 285 284
319 318 318 313 312 308 306 305 305 308 309 306 303 302 301 298 297 296 295 295 292 291 289 289 288 287 287 287 287 287 287 287 287 286 286 286 286 286 285 285 284 283 283 282
317 316 315 312 309 308 305 304 304 304 306 303 301 300 298 297 296 295 294 292 290 288 287 286 286 287 287 287 288 287 287 286 286 286 286 285 285 284 283 284 282 281 282 281
315 315 315 312 308 307 304 303 302 302 301 300 298 297 295 294 295 294 291 289 288 287 286 286 287 288 288 288 288 287 286 286 286 285 285 284 284 283 283 282 282 281 280 281
314 311 310 307 305 304 302 301 300 299 299 298 296 295 294 293 292 291 289 288 287 286 287 287 287 287 287 287 287 286 286 286 285 284 284 283 282 282 281 281 281 281 281 281
313 310 311 308 306 300 299 299 298 297 296 295 294 293 293 292 290 288 287 287 287 287 286 286 287 286 287 287 286 286 286 285 284 283 282 281 281 280 281 280 280 280 280 281
312 310 308 304 300 298 297 296 296 295 294 293 292 291 290 289 288 287 287 287 286 286 286 286 286 286 286 285 285 285 284 283 282 281 281 280 280 280 280 280 279 279 279 279
307 306 304 302 299 298 297 297 296 294 293 292 291 289 288 287 287 286 286 286 286 285 285 285 285 285 285 285 285 283 282 282 281 280 280 279 280 280 279 279 279 279 279 278
307 304 301 299 299 299 299 298 295 294 292 291 288 287 287 287 287 286 286 285 285 284 284 284 284 284 284 283 283 282 281 280 280 279 279 279 279 279 278 278 278 278 278 277
307 307 303 302 302 300 299 296 294 293 290 288 288 287 287 286 285 285 284 284 284 284 283 283 283 283 282 282 281 281 280 279 279 278 278 279 279 278 278 278 278 277 277 277
306 306 304 303 302 301 298 295 293 290 289 288 288 288 286 285 285 284 284 283 283 282 283 283 282 282 281 280 280 279 279 279 278 278 278 278 278 278 277 277 277 277 276 276
303 304 304 302 301 298 296 294 290 289 289 289 287 286 285 284 284 284 284 284 284 283 283 282 282 281 280 279 279 279 278 278 278 278 278 278 277 277 277 277 277 276 276 276
301 301 300 299 298 296 294 291 290 289 289 288 287 285 284 285 285 284 283 283 284 283 283 282 281 280 279 279 278 278 278 277 277 277 277 277 276 276 276 276 276 275 275 275
300 299 298 297 295 293 292 291 290 289 288 287 285 284 284 284 284 284 284 283 283 283 282 281 280 279 278 278 278 277 277 277 277 276 276 276 276 276 276 275 275 275 275 274
298 298 297 295 293 292 291 289 288 288 287 286 285 284 284 283 283 282 282 282 283 282 282 280 279 278 278 277 277 277 277 276 276 276 276 276 276 275 275 274 275 274 274 274
296 296 296 295 292 290 288 288 288 287 286 285 284 284 284 283 284 284 283 282 283 282 281 280 279 277 277 277 277 276 276 276 276 275 275 276 275 275 274 274 274 274 274 274
292 292 292 291 288 287 287 285 285 285 284 284 284 284 284 284 285 283 283 283 283 282 281 280 278 277 277 276 276 276 276 276 275 275 275 275 275 274 274 274 275 274 274 274
290 290 290 290 289 287 285 285 284 283 283 283 282 283 284 285 284 283 282 282 281 281 280 278 277 276 276 276 276 275 276 276 275 275 275 275 275 274 274 275 275 274 274 275
291 290 288 286 287 286 285 285 284 284 283 283 281 283 283 283 282 282 282 281 280 278 277 277 276 276 276 275 275 276 276 276 275 275 275 275 275 275 275 275 275 274 275 276

GFSNGP_925_thetae_045.txt.gz
Theta_e
311 311 311 310 311 312 312 313 315 313 315 316 317 318 316 313 313 313 312 312 310 310 311 310 307 304 300 299 298 298 297 297 296 296 295 295 294 293 293 293 293 292 293 294
303 309 310 310 312 312 313 313 315 316 318 317 317 316 315 315 315 313 311 312 311 310 305 302 302 300 298 297 296 297 296 295 294 294 293 292 292 292 292 293 293 291 289 288
306 312 313 315 315 314 315 316 317 322 319 319 318 318 312 310 308 309 312 313 309 299 296 297 297 296 295 294 294 294 293 293 292 292 291 291 291 291 290 290 289 291 292 289
307 310 315 317 315 317 317 318 317 318 318 317 317 311 307 303 301 303 311 307 300 296 295 294 293 293 293 293 293 292 292 292 291 291 291 291 291 292 292 292 290 288 287 287
314 312 313 319 318 317 317 316 318 317 316 316 313 313 308 301 298 297 296 295 294 293 293 293 292 292 292 292 291 291 291 291 291 292 292 291 289 290 291 292 289 287 287 286
316 314 317 318 315 314 314 318 314 315 316 315 311 317 310 301 298 295 294 294 293 293 293 292 292 292 292 292 291 291 291 291 291 291 291 291 291 289 288 287 287 286 286 286
316 318 313 311 312 315 320 317 312 313 314 309 311 308 303 300 298 296 296 295 295 295 294 293 293 293 292 293 292 291 291 291 292 293 294 292 289 288 287 287 286 286 286 285
318 317 315 311 315 320 314 311 310 312 311 307 305 303 300 300 299 298 297 296 295 294 292 293 293 293 292 291 291 292 292 293 291 289 287 287 289 287 286 286 286 285 285 285
313 313 310 313 315 309 308 308 308 309 308 306 303 301 298 296 295 298 297 295 294 292 292 292 292 293 292 292 293 289 287 288 288 288 289 287 286 286 285 285 284 284 283 283
316 316 314 312 307 306 305 305 305 307 305 304 304 300 298 296 295 294 293 293 292 291 291 289 288 288 288 287 287 288 288 287 287 287 286 286 286 285 285 284 282 282 281 281
315 314 312 310 308 305 303 303 303 304 304 302 301 299 297 297 296 295 292 290 289 287 286 286 287 287 287 288 288 287 287 286 286 286 285 285 284 283 283 282 282 281 281 281
316 312 313 311 307 304 302 302 302 301 299 299 297 296 295 294 293 291 289 288 287 287 287 287 287 287 287 288 288 287 286 285 285 285 284 283 283 282 283 283 282 282 281 281
312 310 309 306 304 302 301 300 300 299 298 296 295 294 293 291 290 290 288 287 287 287 287 287 287 287 287 287 287 286 285 285 284 283 282 282 281 281 280 280 280 280 281 281
310 308 309 305 305 299 299 298 297 295 295 294 293 292 292 291 289 288 287 287 287 287 287 287 287 286 286 286 286 285 284 283 283 282 281 280 280 280 280 279 279 279 279 280
309 308 307 300 297 296 295 294 294 293 292 291 292 291 289 288 287 287 287 287 286 286 286 286 286 285 285 285 285 284 283 282 281 281 280 280 280 280 279 279 279 278 278 278
305 302 300 299 297 295 295 295 294 293 292 290 289 288 287 286 286 286 286 286 286 284 285 285 285 285 285 285 284 283 282 281 280 280 279 279 279 279 278 278 278 278 277 277
308 303 298 296 296 296 296 295 295 293 291 289 287 286 286 286 285 285 285 286 285 285 285 285 284 284 284 284 283 281 281 280 280 279 279 279 279 278 278 278 278 277 277 277
303 306 302 300 299 298 297 295 293 292 289 288 287 286 286 286 284 283 284 284 284 283 284 283 283 283 283 282 281 281 280 279 279 278 278 279 279 278 278 277 277 277 276 276
304 305 303 301 300 299 296 294 292 289 288 287 287 286 285 284 284 283 283 283 282 282 282 283 283 282 281 280 280 280 279 279 278 278 278 278 277 277 277 277 276 276 276 276
301 303 304 302 301 298 295 293 289 288 288 287 286 285 284 284 283 283 283 282 283 283 283 282 282 281 280 280 280 279 278 278 278 278 278 277 277 277 276 276 276 275 275 275
299 300 301 300 298 296 293 290 289 288 288 286 286 285 284 283 284 283 283 282 283 283 283 282 281 280 280 279 279 278 278 278 277 277 277 276 276 276 276 275 275 275 275 275
297 298 297 296 294 291 290 290 289 288 287 286 285 284 283 283 283 284 284 284 283 283 283 281 280 280 279 279 278 278 277 277 277 277 276 276 276 276 275 275 275 275 274 274
296 297 296 294 292 290 290 289 288 287 286 285 285 284 284 283 283 283 282 283 283 283 282 281 280 279 279 278 278 277 277 277 277 276 276 276 276 275 275 274 274 274 274 274
293 294 295 293 291 289 287 287 287 287 286 285 285 285 284 283 283 284 285 283 283 282 282 281 279 279 278 278 277 277 276 276 276 276 276 275 275 275 274 274 274 274 274 275
290 290 291 290 287 286 286 286 286 286 285 284 284 285 285 285 285 284 284 283 283 282 281 280 279 278 277 277 277 276 276 276 276 276 276 275 275 274 274 274 274 275 274 275
289 289 289 289 288 287 285 285 284 284 283 283 283 284 284 285 286 284 283 283 283 282 281 279 278 277 277 277 276 276 276 276 276 276 276 275 275 274 275 275 275 275 276 276
289 289 288 287 287 286 286 285 284 284 284 283 283 283 284 284 284 283 283 283 282 281 280 278 277 277 277 276 276 276 276 276 276 276 275 275 275 275 275 275 275 276 276 276

GFSNGP_925_thetae_048.txt.gz
Theta_e
309 310 311 310 310 309 306 311 311 312 313 312 313 315 316 314 314 314 314 312 309 308 306 306 302 299 299 299 299 298 298 297 296 295 295 295 294 293 293 293 293 293 295 294
303 308 309 308 309 310 310 311 313 313 314 312 313 316 313 311 308 308 308 312 310 300 298 298 297 297 297 298 298 298 297 296 295 294 293 293 292 292 293 293 294 293 292 292
305 309 312 311 312 312 312 311 313 316 315 316 317 316 309 305 302 302 304 309 302 297 295 295 295 295 295 295 295 295 294 293 292 291 291 291 291 292 292 292 292 289 288 291
304 308 312 313 314 313 313 313 313 315 317 315 316 310 304 300 298 298 297 297 294 293 293 293 293 293 293 293 292 292 292 292 292 292 292 293 294 293 291 290 291 293 291 290
311 311 311 317 317 317 316 316 315 315 313 316 313 311 306 300 296 295 295 294 293 293 293 292 292 292 292 292 292 291 291 292 293 295 292 292 291 291 291 291 290 288 287 287
314 311 317 315 314 313 312 316 313 313 314 316 312 318 310 299 296 295 294 293 293 292 292 292 292 292 292 292 292 292 291 292 292 292 292 291 291 291 291 290 288 286 286 286
314 316 314 309 310 314 319 316 312 312 314 310 312 308 303 299 297 296 295 295 294 293 293 293 292 292 292 291 291 291 291 291 291 292 293 292 291 288 288 289 286 285 285 285
315 317 313 309 313 319 314 311 310 310 308 308 305 302 301 300 298 297 296 295 293 292 292 293 293 292 291 290 291 292 292 292 292 291 291 289 288 287 286 286 285 284 284 284
314 312 308 310 313 309 307 307 308 309 307 305 303 300 298 298 297 296 295 293 292 291 291 291 292 292 291 291 292 292 292 291 289 288 287 286 286 285 285 284 284 283 283 282
314 314 311 310 308 306 305 305 304 306 305 302 302 299 296 295 295 296 296 295 294 294 291 290 293 293 292 293 292 289 287 287 287 286 286 285 285 284 284 282 282 281 281 280
314 312 311 310 308 306 304 303 303 305 303 303 300 298 296 295 294 293 292 290 289 287 287 287 289 289 289 287 287 287 287 286 286 285 284 284 283 283 282 282 282 281 281 281
316 313 312 311 307 304 302 302 302 302 301 300 300 298 296 295 294 291 289 288 287 287 287 287 287 287 287 287 288 287 286 285 285 284 284 283 283 283 283 283 282 282 282 282
312 310 308 306 304 301 301 301 300 299 298 296 295 295 294 292 291 290 288 287 287 287 287 287 287 287 287 287 287 286 285 285 284 283 282 282 281 281 280 280 280 281 281 281
308 307 309 304 306 300 299 298 298 295 295 294 293 292 291 291 290 288 288 287 287 287 287 287 287 287 287 287 286 285 285 284 283 282 281 280 280 280 279 279 279 279 279 279
304 304 304 300 297 296 295 294 293 292 292 291 292 291 290 289 287 287 287 287 287 287 287 287 286 286 286 286 285 285 284 282 281 280 280 280 279 279 279 278 278 278 278 277
304 301 300 300 297 295 294 293 292 292 291 290 288 288 288 287 287 287 286 286 286 286 286 286 286 285 285 285 284 282 281 280 280 279 279 279 279 278 278 278 277 277 277 277
304 303 297 295 295 295 294 294 293 292 291 289 287 286 286 285 286 286 286 286 286 286 286 285 285 284 284 283 283 281 281 280 279 279 279 279 278 278 278 277 277 277 276 276
299 300 302 302 299 297 296 295 294 292 290 288 287 286 286 285 285 284 284 285 285 285 285 285 284 284 283 282 281 280 280 279 279 279 279 279 278 277 277 277 277 276 276 276
300 301 302 302 300 298 297 294 293 291 288 287 286 286 286 285 284 284 284 284 283 283 283 283 283 282 281 281 280 280 280 279 278 278 278 278 277 277 277 276 276 276 276 276
299 301 303 301 299 297 295 293 290 288 287 287 286 285 284 284 284 283 283 283 283 284 283 282 282 281 281 280 280 279 279 279 278 278 278 277 277 277 276 276 276 275 275 275
297 298 299 302 300 298 295 291 289 288 287 286 286 285 284 283 283 283 282 282 283 283 283 282 281 281 280 280 279 279 278 278 278 277 277 277 276 276 276 275 275 275 275 275
295 296 297 297 296 293 292 290 289 287 287 286 286 285 283 282 283 283 284 284 283 283 282 281 280 280 280 279 279 278 278 278 277 277 277 276 276 276 275 275 275 275 274 274
292 294 295 294 293 291 290 289 289 287 286 286 285 284 284 283 283 283 283 284 283 283 282 281 280 280 279 279 278 278 277 277 277 277 276 276 276 275 275 275 275 274 274 275
290 290 290 292 291 289 287 288 288 287 287 286 286 285 285 283 283 284 285 284 284 283 282 281 281 281 279 278 278 277 277 277 277 277 276 276 275 275 275 275 275 275 275 275
288 289 289 288 288 288 288 287 287 286 286 285 285 285 285 285 285 284 285 284 283 283 282 282 281 280 278 278 278 277 277 277 277 277 276 276 275 275 275 275 275 275 275 275
287 287 288 289 288 288 287 285 285 284 284 283 284 284 285 285 285 285 285 284 283 282 281 281 280 279 278 277 277 276 276 276 276 276 276 276 276 276 275 276 275 275 276 276
288 289 288 288 288 287 286 285 284 284 284 284 283 283 284 284 285 285 283 283 283 282 281 280 279 278 277 277 276 276 276 276 277 277 276 276 276 276 276 276 276 276 277 277